Flag for U.S.A. Weather past 2 weeks in Orange, California, U.S.A.

Now
80 °F

Passing clouds.


Feels Like: 81 °F
Forecast: 64 / 81 °F
Wind: 7 mph from Northwest

Location: John Wayne Airport-Orange County Airport

Current Time: Sep 21, 2014 at 1:48:04 PM

Latest Report: Sep 21, 2014 at 12:53 PM


Visibility: 10 mi

Pressure: 29.95 "Hg

Humidity: 47%

Dew point: 58 °F

Location of OrangeLocation

Historic Weather in Orange — Graph

°F

Orange temperature yesterday

Maximum temperature yesterday: 80 °F (at 2:53 PM)
Minimum temperature yesterday: 71 °F (at 12:53 AM)
Average temperature yesterday: 74 °F

Past Weeks' High & Low Weather Summary

 TemperatureHumidityPressure
High99 °F (Sep 16, 4:53 PM)81% (Sep 12, 4:53 AM)29.99 "Hg (Sep 12, 4:53 AM)
Low69 °F (Sep 10, 3:53 AM)24% (Sep 16, 3:53 PM)29.67 "Hg (Sep 14, 4:53 PM)
Average80 °F57%29.81 "Hg
* Reported Sep 6 12:53 PM — Sep 21 12:53 PM, Orange, Weather by CustomWeather, © 2014

Note: Actual official high and low records may vary slightly from our data, if they occured in-between our weather recording intervals... More about our weather records

Advertising

Orange weather history for previous 24 hours

 ConditionsComfort  
Time TempWeatherWind HumidityBarometerVisibility
12:53 PM
Sep 21
80 °FPassing clouds.7 mph47%29.95 "Hg10 mi
11:53 AM78 °FPassing clouds.3 mph50%29.97 "Hg10 mi
10:53 AM77 °FPartly sunny.No wind52%29.99 "Hg10 mi
9:53 AM73 °FPartly sunny.No wind59%29.99 "Hg10 mi
8:53 AM73 °FPartly sunny.No wind59%29.99 "Hg10 mi
7:53 AM72 °FOvercast.3 mph61%29.98 "Hg10 mi
6:53 AM72 °FOvercast.3 mph64%29.96 "Hg10 mi
5:53 AM72 °FPassing clouds.No wind64%29.94 "Hg10 mi
4:53 AM72 °FPassing clouds.No wind61%29.94 "Hg10 mi
3:53 AM72 °FOvercast.No wind68%29.93 "Hg10 mi
2:53 AM72 °FOvercast.3 mph66%29.93 "Hg10 mi
1:53 AM73 °FOvercast.No wind64%29.93 "Hg10 mi
12:53 AM72 °FOvercast.No wind66%29.94 "Hg10 mi
11:53 PM
Sep 20
71 °FOvercast.No wind71%29.94 "Hg10 mi
10:53 PM71 °FPassing clouds.No wind71%29.93 "Hg10 mi
9:53 PM72 °FClear.3 mph68%29.92 "Hg10 mi
8:53 PM73 °FClear.3 mph64%29.91 "Hg10 mi
7:53 PM73 °FClear.3 mph66%29.90 "Hg10 mi
6:53 PM75 °FPassing clouds.6 mph64%29.89 "Hg10 mi
5:53 PM76 °FScattered clouds.7 mph60%29.88 "Hg10 mi
4:53 PM78 °FScattered clouds.7 mph56%29.88 "Hg10 mi
3:53 PM79 °FScattered clouds.8 mph52%29.88 "Hg10 mi
2:53 PM80 °FScattered clouds.7 mph49%29.88 "Hg10 mi
1:53 PM78 °FMore clouds than sun.5 mph54%29.90 "Hg10 mi
Weather by CustomWeather, © 2014

See weather overviewHow to use our weather pages